[[{"header":{"parameterUnit":"m.s-1","parameterCategory":1,"la1":30.2991,"la2":30.254,"lo1":-89.0895,"lo2":-89.0444,"dy":0.0017,"dx":0.0017,"nx":28,"ny":28,"refTime":"2023-08-02T21:00:00:Z","depth":0,"parameterNumber":2,"parameterNumberName":"U-component_of_WINDS"},"data":[0,0,0,0,0,0,0,0,0,0,0,0,0,0,0,0,0,0,0,0,0,0,0,0,0,0,0,0,0,0,0,0,0,0,0,0,0,0,0,0,0,0,0,0,0,0,0,0,0,0,0,0,0,0,0,0,0,0,0.9018,0.9017,0,0.8997,0.8997,0.8996,0.8983,0.8983,0.8983,0.8983,0.8962,0.8962,0.8961,0,0,0,0,0,0,0,0,0,0,0,0,0,0.9047,0.9046,0.9018,0.9017,0.9017,0.8997,0.8997,0.8996,0.8983,0.8983,0.8983,0.8983,0.8962,0.8962,0.8961,0,0,0,0,0,0,0,0,0,0,0,0,0,0.9031,0.9046,0.9018,0.9008,0.9007,0.8997,0.8997,0.8996,0.8983,0.8983,0.8983,0.8983,0.8962,0.8962,0.8961,0.8958,0,0,0.8959,0.8958,0,0,0,0,0,0,0,0,0.9032,0.903,0.901,0.9009,0.9008,0.8993,0.8999,0.8984,0.8983,0.8992,0.8983,0.8983,0.8972,0.8971,0.8967,0.8957,0.8957,0.8959,0.8958,0.8958,0.8958,0,0,0,0,0,0,0,0.9033,0.9031,0.9009,0.901,0.9008,0.9005,0.9003,0.8996,0.8983,0.8992,0.8991,0.8988,0.8972,0.8968,0.8966,0.8956,0.8959,0.8958,0.8957,0.8957,0.8944,0.8944,0,0,0,0,0,0,0.9035,0.9032,0.901,0.9009,0.902,0.9005,0.9002,0.8998,0.8983,0.8981,0.8988,0.8988,0.8969,0.8967,0.8966,0.8962,0.8958,0.8957,0.8957,0.8944,0.8944,0.8945,0,0,0,0,0,0,0.9036,0.9034,0.9011,0.902,0.9017,0.9004,0.8999,0.8997,0.8993,0.8981,0.8979,0.8987,0.8969,0.8967,0.896,0.8961,0.8957,0.8956,0.8944,0.8944,0.8944,0.8955,0,0,0,0,0,0,0.9037,0.9034,0.9033,0.902,0.9016,0.9006,0.8999,0.8997,0.8992,0.8991,0.8979,0.8977,0.8969,0.8962,0.896,0.896,0.8956,0.8944,0.8944,0.8944,0.8955,0.8956,0.8957,0,0,0,0,0,0.9038,0.9037,0.9033,0.903,0.9015,0.9006,0.9004,0.8995,0.8992,0.8991,0.8983,0.8977,0.8962,0.8961,0.8959,0.8959,0.8944,0.8944,0.8944,0.8954,0.8956,0.8957,0,0,0,0,0,0,0.905,0.9035,0.903,0.9024,0.9017,0.9004,0.9002,0.8996,0.8989,0.8988,0.8978,0.8975,0.897,0.8964,0.8964,0.8956,0.8952,0.8952,0.896,0.8962,0.8962,0.8964,0.8955,0,0,0,0,0,0.9051,0.9046,0.9033,0.9029,0.9025,0.9014,0.901,0.9004,0.8996,0.8992,0.8984,0.8976,0.8969,0.8965,0.8958,0.8954,0.8951,0.8953,0.8954,0.8955,0.8955,0.8953,0.8953,0.8945,0.8945,0.8945,0,0,0.9055,0.9046,0.9043,0.9031,0.9024,0.9019,0.9012,0.9006,0.9002,0.8991,0.8985,0.8979,0.8969,0.8964,0.8961,0.8959,0.8957,0.8955,0.8956,0.8955,0.8953,0.8954,0.8954,0.8945,0.8945,0.8945,0,0,0.9059,0.9052,0.9048,0.9041,0.9031,0.9024,0.9023,0.9011,0.9007,0.9,0.8992,0.8988,0.8976,0.897,0.8965,0.8968,0.8962,0.8966,0.8971,0.8969,0.8969,0.897,0.8971,0.8972,0.8966,0.8966,0.8966,0,0.9065,0.9056,0.9047,0.9042,0.9037,0.9027,0.9024,0.9018,0.9006,0.9003,0.9,0.8986,0.8979,0.8973,0.8973,0.897,0.8969,0.8967,0.897,0.897,0.8971,0.8972,0.8972,0.8966,0.8966,0.8966,0.8966,0,0.9064,0.9059,0.9057,0.9046,0.9041,0.9036,0.9026,0.9022,0.9017,0.901,0.9004,0.8995,0.8987,0.8985,0.8979,0.8977,0.8976,0.8972,0.8967,0.8972,0.8973,0.8973,0.8967,0.8967,0.8967,0.8967,0,0,0.9075,0.9059,0.9058,0.9054,0.9042,0.9037,0.9033,0.9025,0.9022,0.9014,0.901,0.9001,0.8997,0.8992,0.8985,0.8984,0.8987,0.898,0.8979,0.8982,0.8985,0.8989,0.8989,0.8983,0.8983,0.8983,0.8986,0,0.9077,0.9068,0.906,0.9054,0.9049,0.904,0.9036,0.9029,0.9023,0.9017,0.9011,0.9004,0.9,0.8996,0.8994,0.8987,0.8987,0.8987,0.898,0.8979,0.8982,0.899,0.8993,0.8997,0.8986,0.8986,0.8987,0,0.9079,0.9072,0.9066,0.9055,0.9053,0.9049,0.9041,0.9036,0.9028,0.9024,0.9018,0.9012,0.9007,0.9003,0.8996,0.8996,0.8992,0.8988,0.8988,0.8988,0.8983,0.8989,0.8997,0.8998,0.8987,0.8987,0.8987,0,0.9087,0.9076,0.9071,0.9068,0.9055,0.9053,0.9048,0.9039,0.9035,0.9028,0.9026,0.9018,0.9014,0.9009,0.9001,0.8999,0.8995,0.899,0.8992,0.8992,0.8991,0.8991,0.8999,0.8989,0.8989,0.8989,0.8989,0,0.9091,0.9088,0.9075,0.9072,0.9068,0.9059,0.9056,0.905,0.9042,0.9038,0.903,0.9026,0.9016,0.9011,0.9004,0.9,0.8998,0.8995,0.8993,0.8996,0.8996,0.8993,0.8993,0.8989,0.8989,0.8989,0.8989,0,0.91,0.9091,0.9085,0.9074,0.9071,0.9069,0.906,0.9057,0.905,0.9045,0.9044,0.9033,0.9027,0.9019,0.901,0.9005,0.9002,0.8999,0.9005,0.9004,0.9006,0.9006,0.9013,0.9013,0.9002,0.9002,0.9002,0,0.9103,0.91,0.9089,0.9086,0.9081,0.9076,0.9071,0.9062,0.9058,0.9049,0.9047,0.9041,0.9035,0.9026,0.9017,0.9011,0.9008,0.9011,0.9007,0.901,0.9008,0.9009,0.9009,0.9012,0.9012,0.9012,0.9012,0,0.9109,0.9105,0.9099,0.9093,0.9088,0.9082,0.9075,0.9073,0.9063,0.9059,0.9053,0.9048,0.904,0.9033,0.9026,0.902,0.9015,0.9013,0.9013,0.9016,0.902,0.9018,0.9008,0.9013,0.9013,0.9013,0.9013,0.9013,0.9115,0.9113,0.9105,0.9099,0.9093,0.9088,0.9084,0.9078,0.9072,0.9065,0.906,0.9054,0.9046,0.9035,0.9031,0.9026,0.9024,0.9024,0.9024,0.9024,0.9025,0.902,0.9025,0.9025,0.9025,0.9025,0.9025,0,0.9121,0.9116,0.9111,0.9102,0.9098,0.9093,0.9086,0.9082,0.9078,0.9071,0.9066,0.9059,0.9053,0.9044,0.9038,0.9036,0.9033,0.9035,0.9035,0.9034,0.9027,0.9028,0.9037,0.9037,0.9037,0.9037,0.9037,0.9037,0.9124,0.912,0.9115,0.9108,0.9103,0.9097,0.9094,0.9089,0.9083,0.9076,0.9071,0.9066,0.9059,0.9052,0.9046,0.9044,0.9042,0.9044,0.9041,0.9035,0.9034,0.9033,0.9034,0.9044,0.9044,0.9048,0.9048,0.9048]},{"header":{"parameterUnit":"m.s-1","parameterCategory":1,"la1":30.2991,"la2":30.254,"lo1":-89.0895,"lo2":-89.0444,"dy":0.0017,"dx":0.0017,"nx":28,"ny":28,"refTime":"2023-08-02T21:00:00:Z","depth":0,"parameterNumber":3,"parameterNumberName":"V-component_of_WINDS"},"data":[0,0,0,0,0,0,0,0,0,0,0,0,0,0,0,0,0,0,0,0,0,0,0,0,0,0,0,0,0,0,0,0,0,0,0,0,0,0,0,0,0,0,0,0,0,0,0,0,0,0,0,0,0,0,0,0,0,0,0.2273,0.2273,0,0.2267,0.2267,0.2267,0.2282,0.2282,0.2283,0.2283,0.2277,0.2276,0.2276,0,0,0,0,0,0,0,0,0,0,0,0,0,0.2298,0.2298,0.2273,0.2273,0.2273,0.2267,0.2267,0.2267,0.2281,0.2282,0.2283,0.2283,0.2277,0.2276,0.2276,0,0,0,0,0,0,0,0,0,0,0,0,0,0.2289,0.2298,0.2273,0.228,0.228,0.2267,0.2267,0.2267,0.2281,0.2282,0.2283,0.2283,0.2277,0.2277,0.2276,0.2256,0,0,0.2273,0.2273,0,0,0,0,0,0,0,0,0.229,0.2288,0.2279,0.2279,0.228,0.2276,0.2274,0.2263,0.2281,0.2281,0.2283,0.2284,0.2276,0.2275,0.2273,0.2256,0.2255,0.2273,0.2272,0.2272,0.2272,0,0,0,0,0,0,0,0.229,0.2289,0.2271,0.2279,0.2279,0.2283,0.2282,0.2272,0.2275,0.2281,0.2282,0.2281,0.2276,0.2273,0.2273,0.2255,0.2273,0.2272,0.2271,0.2271,0.2221,0.222,0,0,0,0,0,0,0.229,0.2289,0.2271,0.2271,0.2287,0.2282,0.2281,0.2276,0.2275,0.2275,0.228,0.2282,0.2275,0.2274,0.2272,0.2248,0.2272,0.2271,0.2271,0.2222,0.2221,0.222,0,0,0,0,0,0,0.2291,0.2288,0.2271,0.228,0.2278,0.2281,0.2275,0.2276,0.2273,0.2274,0.2275,0.2277,0.2275,0.2274,0.226,0.2248,0.2271,0.227,0.2223,0.2221,0.222,0.2201,0,0,0,0,0,0,0.2291,0.2289,0.2281,0.228,0.2278,0.2259,0.2274,0.2275,0.2271,0.2273,0.2271,0.2271,0.2276,0.2261,0.2259,0.2248,0.2269,0.2224,0.2222,0.2221,0.2202,0.2199,0.2196,0,0,0,0,0,0.2292,0.2276,0.2281,0.2278,0.2269,0.2258,0.2257,0.2262,0.227,0.2263,0.2264,0.2272,0.225,0.2259,0.2257,0.2245,0.2224,0.2223,0.2221,0.2204,0.22,0.2196,0,0,0,0,0,0,0.2277,0.2276,0.2281,0.2264,0.2261,0.226,0.2251,0.2257,0.2252,0.2253,0.226,0.2259,0.2244,0.2243,0.2254,0.2226,0.2239,0.2236,0.2226,0.2223,0.2219,0.222,0.2268,0,0,0,0,0,0.2271,0.2262,0.2263,0.2248,0.2246,0.2249,0.2244,0.2248,0.2245,0.2244,0.2244,0.2241,0.2233,0.2228,0.2221,0.2202,0.2202,0.2193,0.219,0.2188,0.2185,0.2174,0.217,0.2214,0.2214,0.2214,0,0,0.226,0.2259,0.2253,0.2245,0.2243,0.2233,0.2247,0.2237,0.223,0.2242,0.2229,0.2229,0.2225,0.2209,0.2201,0.2208,0.2173,0.2185,0.2183,0.2182,0.2172,0.2168,0.2164,0.2213,0.2213,0.2213,0,0,0.2234,0.2233,0.222,0.2217,0.2213,0.2215,0.2212,0.221,0.2211,0.2197,0.2205,0.2198,0.2185,0.2182,0.2178,0.2151,0.2158,0.2149,0.2132,0.2121,0.2118,0.2115,0.2104,0.21,0.2146,0.2146,0.2146,0,0.2221,0.2207,0.2212,0.2201,0.2197,0.2207,0.2193,0.2191,0.2185,0.2182,0.2189,0.2173,0.2171,0.2154,0.2147,0.2144,0.214,0.2148,0.2118,0.2115,0.2112,0.2102,0.2098,0.2145,0.2145,0.2145,0.2146,0,0.219,0.218,0.217,0.2164,0.2158,0.2146,0.2149,0.2144,0.2148,0.2149,0.2134,0.2133,0.2126,0.2122,0.2126,0.2104,0.2108,0.2117,0.213,0.2107,0.2097,0.2093,0.2143,0.2144,0.2144,0.2145,0,0,0.2155,0.2151,0.2147,0.2143,0.214,0.2132,0.212,0.2113,0.2107,0.2103,0.2093,0.2081,0.2088,0.2085,0.2089,0.208,0.2056,0.2089,0.2089,0.2082,0.2031,0.2024,0.202,0.2061,0.2061,0.206,0.2031,0,0.2128,0.2107,0.2111,0.2091,0.2081,0.209,0.208,0.2076,0.2077,0.2069,0.207,0.2061,0.2072,0.2069,0.2061,0.2061,0.2046,0.2063,0.2051,0.2051,0.2051,0.2015,0.2008,0.1981,0.2028,0.2027,0.2027,0,0.2095,0.2089,0.2067,0.2064,0.206,0.205,0.2043,0.2036,0.2032,0.2033,0.2028,0.2034,0.2022,0.2035,0.2018,0.203,0.2025,0.2024,0.2023,0.2022,0.2037,0.2012,0.1972,0.1968,0.2021,0.2021,0.2022,0,0.207,0.2056,0.2041,0.2038,0.2035,0.2027,0.2026,0.2022,0.2017,0.2011,0.2008,0.2,0.1996,0.199,0.1994,0.2003,0.1976,0.199,0.1976,0.1975,0.1969,0.1969,0.1927,0.1967,0.1967,0.1967,0.1967,0,0.204,0.2026,0.203,0.202,0.2005,0.2009,0.1994,0.1993,0.199,0.1981,0.1989,0.198,0.1985,0.1976,0.1979,0.1964,0.1962,0.1962,0.1963,0.1961,0.1961,0.1957,0.1959,0.1966,0.1967,0.1967,0.1967,0,0.2009,0.2011,0.1995,0.1993,0.1992,0.198,0.1978,0.1969,0.197,0.1958,0.1955,0.1957,0.1947,0.195,0.1939,0.1941,0.1922,0.1925,0.1923,0.1923,0.1909,0.191,0.1863,0.1857,0.1901,0.1901,0.19,0,0.199,0.1979,0.1975,0.1969,0.1966,0.1957,0.1951,0.1955,0.1949,0.1944,0.1935,0.1926,0.1919,0.1902,0.1902,0.1894,0.1897,0.1881,0.1896,0.1894,0.1896,0.1896,0.1894,0.1878,0.1878,0.1877,0.1877,0,0.1954,0.1955,0.1947,0.1938,0.1931,0.1925,0.192,0.1914,0.1918,0.1911,0.1901,0.1895,0.1884,0.1874,0.1866,0.1865,0.1871,0.1872,0.1868,0.1866,0.1864,0.1864,0.1914,0.1873,0.1874,0.1874,0.1874,0.1874,0.1928,0.1918,0.1913,0.1904,0.19,0.1894,0.1885,0.1885,0.1876,0.1867,0.187,0.1858,0.1854,0.1844,0.1841,0.1832,0.1838,0.1833,0.1831,0.1829,0.1827,0.1866,0.1831,0.1831,0.1831,0.1831,0.1831,0,0.1892,0.1889,0.188,0.1871,0.1863,0.187,0.1864,0.1857,0.1846,0.1842,0.1834,0.1821,0.1812,0.1811,0.1802,0.1795,0.1797,0.1792,0.1792,0.1792,0.1823,0.1826,0.179,0.179,0.179,0.179,0.179,0.179,0.1872,0.1856,0.1856,0.1838,0.1836,0.1823,0.1819,0.1814,0.181,0.1796,0.1788,0.1787,0.1784,0.1775,0.1766,0.1766,0.1762,0.1756,0.1757,0.1786,0.179,0.1794,0.1797,0.1755,0.1755,0.1726,0.1726,0.1726]}]]